Location: Broletto
(44.6000°N, 10.5833°E)
Time: 00:48:54
(UTC+00:00)

Cosmos 2228 - Pass Details

Date: 18 April 2021
Orbit: 587 x 619 km, 82.5° (Epoch: 08 May)

Event Time Altitude Azimuth Distance (km) Brightness Sun altitude
Rises 18:31:10 0° 182° (S) 2,865 6.3 -5.0°
Reaches altitude 10° 18:33:23 10° 181° (S) 1,960 5.4 -5.4°
Maximum altitude 18:37:42 74° 97° (E) 636 3.0 -6.1°
Drops below altitude 10° 18:42:02 10° 12° (NNE) 1,957 5.8 -6.8°
Sets 18:44:15 0° 11° (N) 2,860 6.6 -7.2°
